Flag for Italy Weather past 2 weeks in Bologna, Italy

Now
57 °F

Light rain. Broken clouds.


Feels Like: 55 °F
Forecast: 53 / 60 °F
Wind: 8 mph from Northwest

Location: Bologna / Borgo Panigale

Current Time: May 22, 2015 at 4:05:19 PM

Latest Report: May 22, 2015 at 3:20 PM


Visibility: 5 mi

Pressure: 29.95 "Hg

Humidity: 88%

Dew point: 54 °F

Location of BolognaLocation

Historic Weather in Bologna — Graph

°F

Bologna temperature yesterday

Maximum temperature yesterday: 66 °F (at 1:50 PM)
Minimum temperature yesterday: 48 °F (at 3:50 AM)
Average temperature yesterday: 57 °F

Past Weeks' High & Low Weather Summary

 TemperatureHumidityPressure
High84 °F (May 14, 3:50 PM)100% (May 16, 7:50 AM)30.27 "Hg (May 16, 7:50 AM)
Low48 °F (May 21, 3:50 AM)30% (May 11, 5:20 PM)29.65 "Hg (May 15, 3:20 AM)
Average68 °F66%29.97 "Hg
* Reported May 7 2:20 PM — May 22 2:50 PM, Bologna, Weather by CustomWeather, © 2015

Note: Actual official high and low records may vary slightly from our data, if they occured in-between our weather recording intervals... More about our weather records

Advertising

Bologna weather history for previous 24 hours

 ConditionsComfort  
Time TempWeatherWind HumidityBarometerVisibility
2:50 PM
Fri, May 22
57 °FLight rain. Broken clouds.9 mph82%29.95 "Hg5 mi
2:20 PM57 °FLight rain. Partly sunny.9 mph82%29.95 "Hg5 mi
1:50 PM59 °FLight rain. Partly sunny.12 mph77%29.95 "Hg4 mi
1:20 PM59 °FLight rain. Partly sunny.8 mph88%29.95 "Hg4 mi
12:50 PM57 °FLight rain. Partly sunny.9 mph94%29.98 "Hg5 mi
12:20 PM57 °FLight rain. Partly sunny.8 mph94%29.98 "Hg5 mi
11:50 AM55 °FLight rain. Partly sunny.10 mph94%29.98 "Hg5 mi
11:20 AM55 °FLight rain. Partly sunny.7 mph94%29.98 "Hg5 mi
10:50 AM55 °FLight rain. Partly sunny.7 mph94%29.98 "Hg5 mi
10:20 AM55 °FLight rain. Partly sunny.12 mph94%29.98 "Hg4 mi
9:50 AM55 °FLight rain. Partly sunny.10 mph94%29.98 "Hg4 mi
9:20 AM55 °FLight rain. Partly sunny.9 mph94%30.01 "Hg4 mi
8:50 AM54 °FLight rain. Partly sunny.8 mph100%29.98 "Hg4 mi
8:20 AM54 °FLight rain. Broken clouds.9 mph94%30.01 "Hg4 mi
7:50 AM54 °FLight rain. Broken clouds.10 mph94%29.98 "Hg4 mi
7:20 AM54 °FLight rain. Broken clouds.9 mph94%30.01 "Hg4 mi
6:50 AM54 °FLight rain. Fog.8 mph94%30.01 "Hg3 mi
6:20 AM54 °FLight rain. Partly cloudy.7 mph94%30.01 "Hg4 mi
5:50 AM52 °FLight rain. Partly cloudy.3 mph100%30.01 "Hg5 mi
5:20 AM54 °FLight rain. Partly cloudy.2 mph94%30.01 "Hg5 mi
4:50 AM54 °FLight rain. Partly cloudy.5 mph94%30.01 "Hg5 mi
4:20 AM55 °FLight rain. Passing clouds.6 mph94%30.01 "Hg5 mi
3:50 AM55 °FLight rain. Passing clouds.6 mph88%30.04 "HgN/A
3:20 AM55 °FPassing clouds.6 mph88%30.04 "HgN/A
2:50 AM55 °FPassing clouds.6 mph88%30.04 "HgN/A
2:20 AM55 °FPassing clouds.5 mph88%30.04 "HgN/A
1:50 AM55 °FPassing clouds.7 mph88%30.01 "HgN/A
1:20 AM55 °FPassing clouds.7 mph88%30.04 "HgN/A
12:50 AM55 °FPassing clouds.8 mph88%30.04 "HgN/A
12:20 AM55 °FPassing clouds.9 mph88%30.04 "HgN/A
11:50 PM
Thu, May 21
55 °FPassing clouds.9 mph88%30.04 "HgN/A
11:20 PM55 °FPassing clouds.9 mph88%30.04 "HgN/A
10:50 PM55 °FPassing clouds.8 mph88%30.04 "HgN/A
10:20 PM55 °FPassing clouds.5 mph88%30.04 "HgN/A
9:50 PM55 °FPassing clouds.6 mph82%30.01 "HgN/A
9:20 PM55 °FBroken clouds.6 mph88%30.01 "HgN/A
8:50 PM55 °FBroken clouds.6 mph82%30.01 "HgN/A
8:20 PM55 °FPartly sunny.1 mph88%30.01 "HgN/A
7:50 PM55 °FLight rain. Partly sunny.3 mph88%29.98 "HgN/A
7:20 PM55 °FPartly sunny.2 mph88%29.98 "HgN/A
6:50 PM57 °FLight rain. Partly sunny.5 mph82%29.95 "HgN/A
6:20 PM57 °FThundershowers. Partly sunny.8 mph88%29.95 "HgN/A
5:50 PM57 °FThundershowers. Partly sunny.9 mph82%29.95 "HgN/A
5:20 PM61 °FThundershowers. Broken clouds.10 mph59%29.95 "HgN/A
4:50 PM63 °FThundershowers. Scattered clouds.14 mph64%29.92 "HgN/A
4:20 PM64 °FScattered clouds.7 mph64%29.92 "HgN/A
Weather by CustomWeather, © 2015

See weather overviewHow to use our weather pages